[[{"header":{"parameterUnit":"m.s-1","parameterCategory":1,"la1":30.2991,"la2":30.254,"lo1":-89.0895,"lo2":-89.0444,"dy":0.0017,"dx":0.0017,"nx":28,"ny":28,"refTime":"2023-09-10T03:00:00:Z","depth":0,"parameterNumber":2,"parameterNumberName":"U-component_of_WINDS"},"data":[0,0,0,0,0,0,0,0,0,0,0,0,0,0,0,0,0,0,0,0,0,0,0,0,0,0,0,0,0,0,0,0,0,0,0,0,0,0,0,0,0,0,0,0,0,0,0,0,0,0,0,0,0,0,0,0,0,0,1.2223,1.2224,0,1.2299,1.23,1.2301,1.2323,1.2323,1.2322,1.2322,1.2397,1.24,1.2402,0,0,0,0,0,0,0,0,0,0,0,0,0,1.2094,1.2096,1.2223,1.2224,1.2225,1.2299,1.23,1.2301,1.2323,1.2323,1.2322,1.2322,1.2397,1.2399,1.2402,0,0,0,0,0,0,0,0,0,0,0,0,0,1.2158,1.2097,1.2223,1.2245,1.2248,1.2299,1.23,1.2301,1.2323,1.2323,1.2322,1.2322,1.2396,1.2399,1.2403,1.2436,0,0,1.2413,1.2415,0,0,0,0,0,0,0,0,1.2154,1.2163,1.2241,1.2244,1.2247,1.2301,1.2282,1.2346,1.2324,1.2295,1.2322,1.2321,1.2366,1.2372,1.2387,1.244,1.2443,1.2414,1.2416,1.2417,1.2418,0,0,0,0,0,0,0,1.215,1.2159,1.2253,1.2242,1.2246,1.225,1.2259,1.2294,1.2332,1.2297,1.2299,1.2308,1.2367,1.2384,1.2389,1.2444,1.2414,1.2417,1.2419,1.242,1.2525,1.2525,0,0,0,0,0,0,1.2142,1.2156,1.2251,1.2255,1.2198,1.2253,1.2262,1.2284,1.2332,1.2339,1.2308,1.2309,1.2378,1.2385,1.2392,1.2432,1.2417,1.2421,1.2423,1.2524,1.2525,1.2526,0,0,0,0,0,0,1.2139,1.215,1.2248,1.2206,1.2219,1.2256,1.228,1.2286,1.2303,1.234,1.2347,1.2318,1.2378,1.2387,1.2424,1.2435,1.2422,1.2426,1.2523,1.2524,1.2525,1.2515,0,0,0,0,0,0,1.2135,1.2149,1.2163,1.2206,1.2221,1.228,1.2281,1.2288,1.2309,1.231,1.2352,1.2358,1.2378,1.2419,1.2428,1.244,1.2428,1.2523,1.2524,1.2525,1.2514,1.2515,1.2516,0,0,0,0,0,1.2131,1.2157,1.2164,1.2175,1.2239,1.2281,1.2289,1.2312,1.231,1.2323,1.2347,1.2357,1.2433,1.2423,1.2433,1.2446,1.2522,1.2523,1.2525,1.2514,1.2515,1.2516,0,0,0,0,0,0,1.2114,1.2163,1.2171,1.2213,1.2242,1.2285,1.2303,1.2313,1.2344,1.2343,1.237,1.2379,1.2414,1.2434,1.2422,1.248,1.2477,1.2481,1.2465,1.2467,1.2468,1.2462,1.2431,0,0,0,0,0,1.2116,1.2146,1.2187,1.2219,1.2234,1.2266,1.2284,1.23,1.2331,1.2344,1.2371,1.24,1.243,1.245,1.248,1.2517,1.2525,1.2531,1.2532,1.2532,1.2535,1.2554,1.2557,1.253,1.253,1.253,0,0,1.2118,1.2149,1.2167,1.2217,1.2242,1.2271,1.2276,1.2308,1.2329,1.2348,1.2385,1.2406,1.244,1.2477,1.2495,1.2495,1.2544,1.2534,1.2534,1.2537,1.2556,1.2558,1.256,1.2531,1.2531,1.2531,0,0,1.2138,1.2165,1.2195,1.2219,1.2256,1.2277,1.2284,1.2324,1.2339,1.2376,1.239,1.2416,1.2468,1.2492,1.251,1.2537,1.2546,1.2546,1.255,1.2569,1.2571,1.2573,1.2581,1.2583,1.2548,1.2548,1.2548,0,1.2137,1.2183,1.2208,1.2238,1.2259,1.2278,1.2306,1.2329,1.2374,1.2387,1.2386,1.2451,1.2476,1.2517,1.2524,1.2539,1.2546,1.2541,1.2569,1.2571,1.2573,1.2581,1.2584,1.2548,1.2548,1.2548,1.2548,0,1.2178,1.221,1.2229,1.2272,1.2295,1.2324,1.2352,1.2372,1.2385,1.2405,1.2441,1.2471,1.2507,1.2518,1.2531,1.2561,1.256,1.2564,1.2562,1.2575,1.2582,1.2586,1.2548,1.2548,1.2548,1.2548,0,0,1.2191,1.2247,1.2253,1.2272,1.2314,1.2338,1.2367,1.2402,1.2418,1.2448,1.2472,1.2515,1.2518,1.2539,1.2555,1.2571,1.2588,1.2573,1.2574,1.2573,1.2621,1.2617,1.2621,1.2594,1.2595,1.2595,1.2618,0,1.2215,1.2269,1.2292,1.2335,1.2363,1.238,1.2405,1.2433,1.2452,1.2478,1.2498,1.2528,1.2531,1.2543,1.256,1.2582,1.2598,1.2581,1.2616,1.2616,1.2606,1.2625,1.2622,1.2642,1.2621,1.2622,1.2622,0,1.2251,1.2281,1.2327,1.2364,1.2377,1.2399,1.2432,1.2457,1.2488,1.25,1.2523,1.2537,1.2567,1.2563,1.2603,1.2591,1.2607,1.2619,1.2621,1.2624,1.262,1.2628,1.2649,1.2651,1.2627,1.2627,1.2627,0,1.2254,1.2306,1.234,1.2356,1.24,1.2415,1.2433,1.2464,1.2483,1.2511,1.2524,1.2555,1.2572,1.2595,1.2617,1.2613,1.2654,1.2653,1.2664,1.2664,1.2672,1.2671,1.2694,1.2683,1.2683,1.2683,1.2683,0,1.2278,1.2305,1.2341,1.2362,1.2392,1.2416,1.2445,1.2465,1.2491,1.2515,1.2532,1.2553,1.2581,1.2606,1.2623,1.2652,1.266,1.267,1.2674,1.2668,1.2667,1.2678,1.2677,1.2684,1.2684,1.2684,1.2684,0,1.2286,1.2312,1.2349,1.2388,1.2398,1.2418,1.245,1.247,1.2489,1.2519,1.2527,1.2558,1.2587,1.2611,1.265,1.2661,1.2692,1.2697,1.2682,1.2684,1.2694,1.2692,1.2724,1.2729,1.2715,1.2715,1.2716,0,1.2299,1.2321,1.2361,1.2378,1.2397,1.2425,1.2444,1.2469,1.2488,1.2524,1.2539,1.257,1.2596,1.2642,1.2667,1.2696,1.2702,1.2711,1.2706,1.2699,1.27,1.2699,1.27,1.2711,1.2711,1.2711,1.2711,0,1.232,1.2331,1.2359,1.2391,1.2414,1.244,1.2467,1.2479,1.2508,1.2529,1.256,1.258,1.2619,1.2649,1.2681,1.2699,1.2709,1.2712,1.2716,1.271,1.27,1.2705,1.2682,1.2712,1.2712,1.2711,1.2711,1.2711,1.233,1.2349,1.238,1.241,1.2433,1.2457,1.2477,1.2499,1.2525,1.2559,1.2572,1.2603,1.2631,1.2675,1.2693,1.2717,1.2718,1.2724,1.2725,1.2726,1.2725,1.2697,1.2723,1.2723,1.2723,1.2723,1.2723,0,1.2351,1.2371,1.2399,1.2435,1.2458,1.2467,1.2496,1.2514,1.2542,1.2568,1.2593,1.2627,1.2656,1.2683,1.2712,1.2726,1.2732,1.2733,1.2732,1.2736,1.2723,1.2716,1.2728,1.2728,1.2728,1.2728,1.2728,1.2728,1.2364,1.2396,1.241,1.2453,1.2473,1.2504,1.252,1.2542,1.2563,1.26,1.2625,1.2642,1.2668,1.2699,1.2725,1.2732,1.2742,1.2742,1.275,1.2738,1.2737,1.2736,1.273,1.2744,1.2744,1.2761,1.2761,1.2761]},{"header":{"parameterUnit":"m.s-1","parameterCategory":1,"la1":30.2991,"la2":30.254,"lo1":-89.0895,"lo2":-89.0444,"dy":0.0017,"dx":0.0017,"nx":28,"ny":28,"refTime":"2023-09-10T03:00:00:Z","depth":0,"parameterNumber":3,"parameterNumberName":"V-component_of_WINDS"},"data":[0,0,0,0,0,0,0,0,0,0,0,0,0,0,0,0,0,0,0,0,0,0,0,0,0,0,0,0,0,0,0,0,0,0,0,0,0,0,0,0,0,0,0,0,0,0,0,0,0,0,0,0,0,0,0,0,0,0,1.4883,1.4882,0,1.483,1.483,1.4829,1.4759,1.4758,1.4757,1.4756,1.4703,1.4703,1.4702,0,0,0,0,0,0,0,0,0,0,0,0,0,1.4923,1.4923,1.4883,1.4882,1.4882,1.483,1.483,1.4829,1.4759,1.4758,1.4756,1.4755,1.4703,1.4703,1.4702,0,0,0,0,0,0,0,0,0,0,0,0,0,1.4892,1.4923,1.4883,1.4841,1.4836,1.4831,1.483,1.4829,1.476,1.4758,1.4756,1.4754,1.4703,1.4703,1.4702,1.4734,0,0,1.4701,1.4701,0,0,0,0,0,0,0,0,1.4894,1.4891,1.4848,1.4844,1.4839,1.4799,1.4825,1.4797,1.476,1.4789,1.4756,1.4754,1.4737,1.4733,1.4727,1.4732,1.473,1.4701,1.4701,1.47,1.47,0,0,0,0,0,0,0,1.4896,1.4892,1.4862,1.4847,1.4842,1.4824,1.4818,1.4819,1.4773,1.4786,1.4781,1.4776,1.4734,1.4728,1.4726,1.4729,1.4701,1.4701,1.47,1.47,1.4755,1.4757,0,0,0,0,0,0,1.4905,1.4895,1.4864,1.4861,1.4862,1.4825,1.4818,1.4814,1.4773,1.4765,1.4777,1.4772,1.473,1.4726,1.4723,1.4757,1.47,1.47,1.47,1.4753,1.4756,1.4757,0,0,0,0,0,0,1.4906,1.4902,1.4866,1.4876,1.487,1.4826,1.4822,1.4814,1.4808,1.4766,1.4758,1.4779,1.4728,1.4724,1.4732,1.4754,1.47,1.4699,1.4751,1.4754,1.4757,1.4824,0,0,0,0,0,0,1.4907,1.4903,1.4915,1.4877,1.487,1.4875,1.4824,1.4814,1.4807,1.48,1.4766,1.4759,1.4726,1.4733,1.4731,1.4752,1.4699,1.4749,1.4753,1.4756,1.482,1.4829,1.4837,0,0,0,0,0,1.4909,1.4937,1.4916,1.4913,1.4884,1.4877,1.4873,1.4834,1.4809,1.482,1.4793,1.476,1.4752,1.4734,1.4732,1.4753,1.4748,1.4752,1.4755,1.4816,1.4827,1.4837,0,0,0,0,0,0,1.4979,1.4931,1.4907,1.4924,1.4905,1.4865,1.4878,1.4848,1.4836,1.483,1.4784,1.4777,1.479,1.4772,1.4753,1.4781,1.4745,1.4748,1.4792,1.4802,1.481,1.4814,1.4699,0,0,0,0,0,1.4997,1.4995,1.4953,1.4972,1.4963,1.4923,1.4918,1.489,1.4869,1.486,1.4834,1.4815,1.4807,1.4804,1.4795,1.4817,1.4808,1.4831,1.4839,1.4846,1.485,1.4858,1.4868,1.477,1.477,1.477,0,0,1.5033,1.5006,1.5008,1.4985,1.4967,1.4966,1.4916,1.4918,1.4916,1.4861,1.4865,1.4846,1.4821,1.4835,1.4841,1.4821,1.4875,1.4851,1.4857,1.4857,1.4863,1.4873,1.4881,1.4773,1.4773,1.4772,0,0,1.5098,1.5078,1.5091,1.5073,1.5046,1.5018,1.5022,1.4986,1.497,1.4974,1.4932,1.493,1.4919,1.4903,1.4893,1.4951,1.4919,1.4949,1.4993,1.5002,1.501,1.5016,1.5035,1.5043,1.4953,1.4953,1.4953,0,1.5146,1.5142,1.5101,1.5104,1.5095,1.5044,1.5056,1.5042,1.5014,1.5008,1.4987,1.4971,1.4951,1.496,1.4974,1.4968,1.497,1.4953,1.5012,1.5018,1.5023,1.5041,1.5049,1.4957,1.4957,1.4956,1.4956,0,1.5202,1.5201,1.5214,1.5187,1.5179,1.5187,1.5147,1.5144,1.5117,1.5092,1.5096,1.507,1.5054,1.5054,1.5028,1.5059,1.5048,1.502,1.4983,1.5037,1.5053,1.5059,1.4962,1.4961,1.496,1.4959,0,0,1.531,1.5259,1.5265,1.5251,1.5217,1.5215,1.522,1.5204,1.5202,1.5185,1.5187,1.5178,1.5152,1.5141,1.5112,1.5121,1.5166,1.5091,1.509,1.5105,1.5197,1.5217,1.5226,1.5145,1.5146,1.5147,1.5198,0,1.5367,1.5373,1.5335,1.5351,1.5348,1.5299,1.5304,1.5283,1.526,1.5254,1.5228,1.5222,1.5188,1.518,1.5187,1.5159,1.5184,1.5155,1.5146,1.5146,1.5153,1.5234,1.5256,1.5306,1.5204,1.5205,1.5206,0,1.5435,1.5419,1.5435,1.5398,1.5396,1.54,1.5382,1.5377,1.5353,1.5335,1.5322,1.5289,1.5291,1.5256,1.5258,1.5239,1.5233,1.522,1.522,1.5217,1.5179,1.5232,1.5321,1.5328,1.5216,1.5215,1.5214,0,1.551,1.5493,1.5499,1.549,1.5448,1.5452,1.5435,1.5409,1.5401,1.5386,1.538,1.5365,1.5357,1.5346,1.5309,1.5287,1.5315,1.5277,1.5299,1.53,1.5307,1.5306,1.5395,1.5305,1.5305,1.5305,1.5305,0,1.5577,1.5587,1.5532,1.5536,1.5547,1.5504,1.5515,1.5493,1.547,1.5469,1.5426,1.5426,1.5378,1.5372,1.5344,1.5349,1.5346,1.5331,1.5323,1.5334,1.5336,1.5329,1.5324,1.5307,1.5306,1.5306,1.5306,0,1.5662,1.5626,1.5629,1.5589,1.5579,1.5589,1.5554,1.5556,1.553,1.5528,1.5526,1.5484,1.5475,1.5438,1.542,1.54,1.5414,1.54,1.5422,1.5417,1.5441,1.5439,1.5527,1.5535,1.5442,1.5443,1.5444,0,1.5706,1.5713,1.5674,1.567,1.5654,1.5648,1.564,1.5598,1.5591,1.5563,1.5568,1.5555,1.5542,1.553,1.5498,1.5483,1.5467,1.5499,1.5465,1.5475,1.5466,1.5466,1.5466,1.5506,1.5508,1.5509,1.5509,0,1.5789,1.577,1.576,1.5743,1.5734,1.5719,1.5701,1.57,1.5653,1.5647,1.5637,1.5627,1.5608,1.5595,1.5576,1.5558,1.5526,1.5521,1.5525,1.5535,1.5548,1.554,1.5441,1.5519,1.5518,1.5517,1.5516,1.5516,1.5854,1.5857,1.583,1.5819,1.5801,1.5785,1.5785,1.5758,1.5748,1.5729,1.5705,1.5697,1.5672,1.5642,1.5626,1.5619,1.5601,1.5608,1.5609,1.5611,1.5616,1.555,1.5616,1.5615,1.5615,1.5615,1.5615,0,1.5933,1.5913,1.5903,1.5879,1.5871,1.5841,1.582,1.5815,1.5809,1.5787,1.5775,1.5763,1.575,1.5717,1.5701,1.5702,1.5687,1.5699,1.5698,1.5694,1.5634,1.5631,1.5712,1.5712,1.5712,1.5712,1.5712,1.5712,1.5973,1.5976,1.5955,1.5949,1.5928,1.592,1.591,1.5895,1.5878,1.5866,1.5855,1.5833,1.5807,1.5788,1.5775,1.5766,1.5761,1.5778,1.5764,1.5708,1.5699,1.569,1.5687,1.5778,1.5778,1.5825,1.5825,1.5826]}]]